Location: Unspecified
(49.2170°N, 0.0000°E)
Time: 23:54:03
(UTC+00:00)

Transit 2A - Pass Details

Date: 23 June 2019
Orbit: 594 x 964 km, 66.7° (Epoch: 20 July)

Event Time Altitude Azimuth Distance (km) Brightness Sun altitude
Rises 23:16:14 0° 187° (S) 3,619 - -16.6°
Reaches altitude 10° 23:18:55 10° 181° (S) 2,691 - -16.7°
Exits shadow 23:21:51 26° 163° (SSE) 1,805 7.3 -16.8°
Maximum altitude 23:24:46 40° 114° (ESE) 1,384 7.0 -16.9°
Drops below altitude 10° 23:30:32 10° 47° (NE) 2,655 9.2 -17.0°
Sets 23:33:09 0° 41° (NE) 3,567 10.1 -17.1°
